Regional Weather Roundup
Issued by NWS

Home | Current Version | Previous Version | Text Only | Print | Product List | Glossary Off
Versions: 1 2 3 4 5 6 7 8 9 10 11 12 13 14 15 16 17 18 19 20 21 22 23 24 25 26 27 28

000
ASUS45 KCYS 251910
RWRWY

WYOMING REGIONAL WEATHER ROUNDUP
NATIONAL WEATHER SERVICE CHEYENNE WY
100 PM MDT MON SEP 25 2017

NOTE:  "FAIR" INDICATES FEW OR NO CLOUDS BELOW 12,000 FEET
WITH NO SIGNIFICANT WEATHER AND/OR OBSTRUCTIONS TO VISIBILITY.

WYZ001-252000-
YELLOWSTONE NATIONAL PARK

CITY           SKY/WX    TMP DP  RH WIND       PRES   REMARKS
LK YELLOWSTONE NOT AVBL
W YELLOWSTONE  NOT AVBL

$$
WYZ002>013-054>058-071-098>099-252000-
NORTHERN WYOMING

CITY           SKY/WX    TMP DP  RH WIND       PRES   REMARKS
JACKSON        CLOUDY    43  33  68 SW3       30.12S
CODY           PTSUNNY   49  31  49 E7        30.09F
GREYBULL       CLOUDY    48  43  82 SE5       30.09F
WORLAND        CLOUDY    49  41  74 N3        30.09F
SHERIDAN       CLOUDY    51  40  65 VRB5      30.10S
BUFFALO        CLOUDY    45  37  73 E5        30.11S
GILLETTE       CLOUDY    47  39  74 N5        30.10F
HULETT         CLOUDY    45  41  87 CALM      30.12S
NEWCASTLE      CLOUDY    45  39  81 S3        30.13F

$$
WYZ014>020-022>026-101>103-252000-
CENTRAL WYOMING

CITY           SKY/WX    TMP DP  RH WIND       PRES   REMARKS
BIG PINEY      FAIR      44  31  60 MISG      30.13F
PINEDALE       MOCLDY    41  32  70 W7        30.13F
DUBOIS         CLOUDY    43  30  61 W12       30.09S
LANDER         CLOUDY    47  34  60 S6        30.09F
RIVERTON       FAIR      48  34  58 S5        30.11F
CASPER         CLOUDY    45  39  79 VRB6      30.11F
DOUGLAS        CLOUDY    48  39  71 NW7       30.11F

$$
WYZ021-027>030-104>119-252000-
SOUTHERN WYOMING

CITY           SKY/WX    TMP DP  RH WIND       PRES   REMARKS
EVANSTON       CLOUDY    44  32  62 S6        30.15F
FORT BRIDGER   FAIR      47  33  57 NW14G21   30.17F
ROCK SPRINGS   CLOUDY    43  31  62 W7        30.13F
DIXON          CLOUDY    45  31  58 W3        30.15F
RAWLINS        CLOUDY    44  32  62 W12       30.12F
SARATOGA       CLOUDY    43  32  65 W13G18    30.13S
LARAMIE        PTSUNNY   47  32  56 NW12      30.09F
CHEYENNE       CLOUDY    49  38  65 S8        30.10F
TORRINGTON     CLOUDY    50  38  63 NW3       30.10F
PINE BLUFFS    CLOUDY    45  41  87 CALM      30.11F

$$




USA.gov is the U.S. government's official web portal to all federal, state and local government web resources and services.